Location: Belfast
(54.5830°N, 5.9330°W)
Time: 00:38:02
(UTC+01:00)

Coronas F rocket - Visible Passes

Search period start: 18 September 2014 00:00
Search period end: 28 September 2014 00:00
Orbit: 393 x 416 km, 82.5° (Epoch: 17 September)

Date Brightness Start Highest point End Pass type
(mag) Time Alt. Az. Time Alt. Az. Time Alt. Az.
18 Sep 4.9 04:02:45 10° NNE 04:04:40 15° ENE 04:06:35 10° ESE visible
18 Sep 1.9 05:35:20 10° NNW 05:38:22 46° W 05:41:24 10° S visible
19 Sep 2.5 04:45:50 10° N 04:48:55 51° ENE 04:52:01 10° SSE visible
19 Sep 3.6 06:20:28 10° WNW 06:21:58 13° W 06:23:27 10° WSW visible
20 Sep 4.5 03:56:52 10° NNE 03:59:13 19° ENE 04:01:21 11° ESE visible
20 Sep 2.3 05:29:52 10° NNW 05:32:46 34° W 05:33:58 25° SW visible
21 Sep 1.8 04:40:10 10° N 04:43:20 71° ENE 04:43:31 68° ESE visible
22 Sep 4.1 03:50:59 10° NNE 03:53:20 23° ENE 03:53:20 23° ENE visible
22 Sep 3.2 05:24:20 10° NNW 05:25:59 22° WNW 05:25:59 22° WNW visible
23 Sep 3.4 04:34:26 10° NNW 04:35:58 26° NNW 04:35:58 26° NNW visible
24 Sep 4.6 03:45:03 10° N 03:46:03 17° NNE 03:46:03 17° NNE visible
25 Sep 4.5 04:28:38 10° NNW 04:28:52 12° NNW 04:28:52 12° NNW visible
26 Sep 5.0 03:39:04 10° N 03:39:05 10° N 03:39:05 10° N visible
